Simultaneous Nadir Overpasses (SNOs) Predictions

Prediction of SNOs between NOAA-15 and METOP-C Satellite Orbit:

Table of predicted SNOs for the next 14.0 days since TLE Epoch: 8/5/2023
Index Date (NOAA-15) Time (NOAA-15) Lat,Lon (NOAA-15) SZA (NOAA-15 ) Date (METOP-C) Time (METOP-C) Lat,Lon (METOP-C) SZA (METOP-C ) Distance(km) Time Diff (sec)
1 08/07/2023 04:58:18 -81.09, -36.50 113.60 08/07/2023 04:57:06 -81.08, -36.48 113.63 1.55 72
2 08/07/2023 05:48:52 81.09, 131.04 66.43 08/07/2023 05:47:46 81.09, 131.06 66.41 0.39 66
3 08/07/2023 06:39:18 -81.08, -61.44 113.56 08/07/2023 06:38:27 -81.09, -61.60 113.59 2.78 51
4 08/07/2023 07:29:53 81.09, 105.72 66.45 08/07/2023 07:29:08 81.08, 105.57 66.41 2.76 45
5 08/07/2023 08:20:19 -81.08, -86.76 113.54 08/07/2023 08:19:48 -81.10, -86.71 113.54 1.78 31
6 08/07/2023 09:10:54 81.09, 80.40 66.46 08/07/2023 09:10:29 81.09, 80.45 66.46 0.80 25
7 08/07/2023 10:01:20 -81.09,-112.08 113.53 08/07/2023 10:01:10 -81.09,-112.21 113.54 2.31 10
8 08/07/2023 10:51:55 81.10, 55.08 66.48 08/07/2023 10:51:51 81.09, 54.96 66.46 2.41 4
9 08/07/2023 11:42:21 -81.09,-137.39 113.51 08/07/2023 11:42:31 -81.10,-137.33 113.49 1.73 10
10 08/07/2023 12:32:56 81.10, 29.76 66.49 08/07/2023 12:33:12 81.09, 29.84 66.50 1.36 16
11 08/07/2023 13:23:22 -81.09,-162.71 113.49 08/07/2023 13:23:53 -81.09,-162.82 113.49 1.85 31
12 08/07/2023 14:13:57 81.10, 4.45 66.51 08/07/2023 14:14:34 81.09, 4.35 66.50 2.17 37
13 08/07/2023 15:04:23 -81.09, 171.97 113.48 08/07/2023 15:05:14 -81.10, 172.06 113.44 1.83 51
14 08/07/2023 15:54:58 81.10, -20.87 66.52 08/07/2023 15:55:55 81.10, -20.77 66.55 1.95 57
15 08/07/2023 16:45:24 -81.10, 146.66 113.46 08/07/2023 16:46:36 -81.10, 146.57 113.44 1.43 72



Historial Predications of SNOs between NOAA-15 and METOP-C
